ASL6L LYTV-LYBE

Flight info

Callsign ASL6L
Flight time 0h 36m
Altitude 25000
Route NIK DCT ELGEB
Aircraft A320/M-SDE3FGHIRWY/LB1

Departure

Time 2026-04-30 07:31
Airport Tivat Airport (LYTV)

Arrival

Time 2026-04-30 08:08
Airport Belgrade Nikola Tesla Airport (LYBE)
Time Latitude Longitude Altitude Speed Heading
2026-04-30 06:48 42.41151 18.71752 21 ft 0 kts 177°
2026-04-30 07:25 42.41149 18.71752 20 ft 3 kts 177°
2026-04-30 07:25 42.41104 18.71763 19 ft 10 kts 154°
2026-04-30 07:25 42.41037 18.71834 21 ft 13 kts 137°
2026-04-30 07:26 42.40988 18.71846 21 ft 0 kts 211°
2026-04-30 07:27 42.40982 18.71835 20 ft 5 kts 226°
2026-04-30 07:28 42.40920 18.71802 20 ft 14 kts 159°
2026-04-30 07:28 42.40813 18.71918 18 ft 25 kts 140°
2026-04-30 07:28 42.40659 18.72095 16 ft 34 kts 139°
2026-04-30 07:28 42.40466 18.72327 19 ft 40 kts 138°
2026-04-30 07:29 42.40244 18.72598 22 ft 46 kts 139°
2026-04-30 07:29 42.39993 18.72880 20 ft 47 kts 141°
2026-04-30 07:29 42.39774 18.73127 22 ft 37 kts 139°
2026-04-30 07:29 42.39624 18.73259 24 ft 17 kts 165°
2026-04-30 07:30 42.39672 18.73254 23 ft 0 kts 322°
2026-04-30 07:30 42.39674 18.73251 23 ft 6 kts 322°
2026-04-30 07:31 42.39842 18.73061 19 ft 66 kts 319°
2026-04-30 07:31 42.40350 18.72461 23 ft 125 kts 319°
2026-04-30 07:31 42.41127 18.71547 179 ft 155 kts 319°
2026-04-30 07:31 42.41891 18.70642 989 ft 142 kts 319°
2026-04-30 07:32 42.42689 18.69713 1299 ft 166 kts 320°
2026-04-30 07:32 42.43618 18.68625 1663 ft 189 kts 319°
2026-04-30 07:32 42.44671 18.67390 2084 ft 212 kts 320°
2026-04-30 07:32 42.45891 18.66143 2662 ft 227 kts 337°
2026-04-30 07:33 42.47512 18.65670 2960 ft 256 kts
2026-04-30 07:33 42.49343 18.66111 3622 ft 265 kts 13°
2026-04-30 07:33 42.51149 18.66600 4861 ft 261 kts 13°
2026-04-30 07:33 42.52924 18.67071 5689 ft 257 kts 11°
2026-04-30 07:34 42.54663 18.67530 6289 ft 254 kts 13°
2026-04-30 07:34 42.56385 18.68316 6824 ft 271 kts 21°
2026-04-30 07:34 42.58166 18.69298 6981 ft 280 kts 22°
2026-04-30 07:34 42.59364 18.69964 7024 ft 281 kts 22°
2026-04-30 07:35 42.61740 18.71290 7028 ft 281 kts 22°
2026-04-30 07:35 42.62938 18.71956 7035 ft 281 kts 21°
2026-04-30 07:35 42.64779 18.73007 7514 ft 285 kts 25°
2026-04-30 07:35 42.66467 18.74446 8367 ft 290 kts 38°
2026-04-30 07:36 42.67908 18.76399 9152 ft 296 kts 50°
2026-04-30 07:36 42.69223 18.78577 9955 ft 301 kts 49°
2026-04-30 07:36 42.70573 18.80795 10660 ft 306 kts 49°
2026-04-30 07:36 42.71944 18.83037 11377 ft 310 kts 48°
2026-04-30 07:37 42.73330 18.85308 12095 ft 314 kts 47°
2026-04-30 07:37 42.74736 18.87614 12834 ft 318 kts 47°
2026-04-30 07:37 42.76157 18.89948 13530 ft 323 kts 46°
2026-04-30 07:37 42.77667 18.92226 14169 ft 324 kts 38°
2026-04-30 07:38 42.79481 18.94117 14453 ft 337 kts 28°
2026-04-30 07:38 42.81496 18.95930 14594 ft 358 kts 28°
2026-04-30 07:38 42.83611 18.97820 14957 ft 368 kts 28°
2026-04-30 07:38 42.85769 18.99754 15516 ft 373 kts 28°
2026-04-30 07:39 42.87942 19.01719 16093 ft 377 kts 28°
2026-04-30 07:39 42.90134 19.03717 16672 ft 381 kts 28°
2026-04-30 07:39 42.92343 19.05733 17278 ft 383 kts 28°
2026-04-30 07:39 42.94570 19.07762 17868 ft 386 kts 28°
2026-04-30 07:40 42.96821 19.09807 18478 ft 390 kts 27°
2026-04-30 07:40 42.99097 19.11878 19028 ft 394 kts 27°
2026-04-30 07:40 43.01386 19.13964 19503 ft 398 kts 27°
2026-04-30 07:40 43.03706 19.16081 20002 ft 402 kts 27°
2026-04-30 07:41 43.06045 19.18223 20497 ft 407 kts 27°
2026-04-30 07:41 43.08406 19.20389 20971 ft 411 kts 27°
2026-04-30 07:41 43.10793 19.22577 21426 ft 415 kts 27°
2026-04-30 07:41 43.13205 19.24789 21862 ft 419 kts 27°
2026-04-30 07:42 43.15641 19.27022 22308 ft 423 kts 27°
2026-04-30 07:42 43.18097 19.29273 22743 ft 426 kts 27°
2026-04-30 07:42 43.20576 19.31546 23182 ft 430 kts 27°
2026-04-30 07:42 43.23069 19.33839 23621 ft 434 kts 27°
2026-04-30 07:43 43.25587 19.36164 24015 ft 437 kts 27°
2026-04-30 07:43 43.28120 19.38507 24396 ft 441 kts 27°
2026-04-30 07:43 43.30671 19.40870 24775 ft 444 kts 27°
2026-04-30 07:43 43.33233 19.43242 25150 ft 446 kts 26°
2026-04-30 07:44 43.35810 19.45626 25307 ft 449 kts 26°
2026-04-30 07:44 43.38420 19.48041 25172 ft 450 kts 27°
2026-04-30 07:44 43.41004 19.50440 24934 ft 447 kts 27°
2026-04-30 07:44 43.43574 19.52832 24703 ft 441 kts 27°
2026-04-30 07:45 43.46082 19.55174 24468 ft 431 kts 27°
2026-04-30 07:45 43.48536 19.57469 24229 ft 422 kts 27°
2026-04-30 07:45 43.50946 19.59715 24005 ft 415 kts 27°
2026-04-30 07:45 43.53322 19.61925 23761 ft 408 kts 27°
2026-04-30 07:46 43.55656 19.64098 23482 ft 401 kts 27°
2026-04-30 07:46 43.57947 19.66234 23206 ft 394 kts 27°
2026-04-30 07:46 43.60176 19.68312 22945 ft 387 kts 27°
2026-04-30 07:46 43.62420 19.70331 22653 ft 381 kts 25°
2026-04-30 07:47 43.64646 19.72209 22486 ft 371 kts 23°
2026-04-30 07:47 43.66861 19.74002 22229 ft 366 kts 22°
2026-04-30 07:47 43.69048 19.75742 21971 ft 360 kts 22°
2026-04-30 07:47 43.71209 19.77466 21713 ft 357 kts 22°
2026-04-30 07:48 43.73345 19.79189 21453 ft 354 kts 22°
2026-04-30 07:48 43.75457 19.80905 21198 ft 351 kts 22°
2026-04-30 07:48 43.77548 19.82619 20940 ft 348 kts 22°
2026-04-30 07:48 43.79661 19.84350 20698 ft 366 kts 23°
2026-04-30 07:49 43.81911 19.86178 20453 ft 380 kts 23°
2026-04-30 07:49 43.84204 19.88056 20206 ft 383 kts 24°
2026-04-30 07:49 43.86489 19.89946 19962 ft 382 kts 24°
2026-04-30 07:49 43.88768 19.91839 19716 ft 380 kts 24°
2026-04-30 07:50 43.91030 19.93721 19481 ft 378 kts 24°
2026-04-30 07:50 43.93280 19.95593 19238 ft 376 kts 24°
2026-04-30 07:50 43.95513 19.97451 18939 ft 372 kts 24°
2026-04-30 07:50 43.97695 19.99270 18465 ft 360 kts 24°
2026-04-30 07:51 43.99809 20.01028 17913 ft 350 kts 24°
2026-04-30 07:51 44.01876 20.02744 17381 ft 341 kts 24°
2026-04-30 07:51 44.03075 20.03741 17064 ft 336 kts 25°
2026-04-30 07:51 44.05034 20.05368 16553 ft 329 kts 25°
2026-04-30 07:52 44.06982 20.06981 16038 ft 323 kts 25°
2026-04-30 07:52 44.08894 20.08566 15538 ft 317 kts 25°
2026-04-30 07:52 44.10768 20.10121 15039 ft 311 kts 26°
2026-04-30 07:52 44.12592 20.11641 14553 ft 307 kts 26°
2026-04-30 07:53 44.14408 20.13154 14070 ft 302 kts 26°
2026-04-30 07:53 44.16202 20.14648 13525 ft 298 kts 27°
2026-04-30 07:53 44.17974 20.16122 12988 ft 297 kts 27°
2026-04-30 07:53 44.19747 20.17600 12465 ft 297 kts 27°
2026-04-30 07:54 44.21526 20.19086 11943 ft 299 kts 28°
2026-04-30 07:54 44.23313 20.20577 11431 ft 300 kts 29°
2026-04-30 07:54 44.25097 20.22069 10918 ft 297 kts 29°
2026-04-30 07:54 44.26860 20.23545 10423 ft 294 kts 29°
2026-04-30 07:55 44.28603 20.25006 9892 ft 289 kts 29°
2026-04-30 07:55 44.30302 20.26433 9346 ft 282 kts 30°
2026-04-30 07:55 44.31964 20.27833 8809 ft 276 kts 30°
2026-04-30 07:55 44.33589 20.29202 8285 ft 270 kts 30°
2026-04-30 07:56 44.35181 20.30543 7760 ft 264 kts 30°
2026-04-30 07:56 44.36738 20.31855 7349 ft 256 kts 30°
2026-04-30 07:56 44.38207 20.33093 7225 ft 241 kts 30°
2026-04-30 07:56 44.39654 20.34311 7095 ft 238 kts 30°
2026-04-30 07:57 44.41067 20.35503 6966 ft 236 kts 30°
2026-04-30 07:57 44.42471 20.36687 6844 ft 235 kts 30°
2026-04-30 07:57 44.43870 20.37869 6712 ft 235 kts 30°
2026-04-30 07:57 44.45268 20.39048 6583 ft 234 kts 30°
2026-04-30 07:58 44.46660 20.40224 6452 ft 234 kts 30°
2026-04-30 07:58 44.48060 20.41405 6311 ft 235 kts 30°
2026-04-30 07:58 44.49458 20.42588 6177 ft 234 kts 30°
2026-04-30 07:58 44.50855 20.43774 6055 ft 234 kts 29°
2026-04-30 07:59 44.52251 20.44957 5906 ft 234 kts 30°
2026-04-30 07:59 44.53643 20.46134 5784 ft 233 kts 29°
2026-04-30 07:59 44.55015 20.47295 5654 ft 228 kts 29°
2026-04-30 08:00 44.57694 20.49568 5389 ft 219 kts 29°
2026-04-30 08:00 44.58982 20.50664 5182 ft 215 kts 29°
2026-04-30 08:00 44.60255 20.51748 4958 ft 213 kts 30°
2026-04-30 08:00 44.61523 20.52829 4706 ft 213 kts 29°
2026-04-30 08:01 44.62789 20.53906 4464 ft 212 kts 30°
2026-04-30 08:01 44.64053 20.54980 4233 ft 213 kts 29°
2026-04-30 08:01 44.65339 20.56074 4048 ft 212 kts 29°
2026-04-30 08:01 44.66583 20.57133 3982 ft 204 kts 30°
2026-04-30 08:02 44.69078 20.57907 3992 ft 181 kts 343°
2026-04-30 08:02 44.70120 20.57032 3992 ft 172 kts 316°
2026-04-30 08:03 44.71381 20.54383 3974 ft 152 kts 307°
2026-04-30 08:03 44.72483 20.51926 3660 ft 144 kts 307°
2026-04-30 08:03 44.73016 20.50736 3469 ft 144 kts 306°
2026-04-30 08:04 44.73540 20.49563 3296 ft 142 kts 307°
2026-04-30 08:04 44.74062 20.48394 3096 ft 139 kts 306°
2026-04-30 08:04 44.74590 20.47216 2907 ft 146 kts 308°
2026-04-30 08:04 44.75125 20.46015 2690 ft 142 kts 307°
2026-04-30 08:05 44.75656 20.44827 2516 ft 148 kts 307°
2026-04-30 08:05 44.76213 20.43579 2293 ft 150 kts 306°
2026-04-30 08:05 44.76764 20.42340 2100 ft 149 kts 307°
2026-04-30 08:05 44.77327 20.41078 1879 ft 155 kts 307°
2026-04-30 08:06 44.77901 20.39791 1635 ft 152 kts 306°
2026-04-30 08:06 44.78443 20.38571 1427 ft 144 kts 306°
2026-04-30 08:06 44.78782 20.37807 1346 ft 135 kts 306°
2026-04-30 08:06 44.79386 20.36449 1096 ft 127 kts 306°
2026-04-30 08:07 44.79844 20.35418 954 ft 120 kts 306°
2026-04-30 08:07 44.80284 20.34433 687 ft 121 kts 304°
2026-04-30 08:07 44.80735 20.33409 524 ft 128 kts 305°
2026-04-30 08:07 44.81215 20.32334 374 ft 126 kts 303°
2026-04-30 08:08 44.81510 20.31678 329 ft 108 kts 303°
2026-04-30 08:08 44.81851 20.30908 329 ft 76 kts 302°
2026-04-30 08:08 44.82136 20.30266 326 ft 39 kts 292°
2026-04-30 08:08 44.82165 20.30023 328 ft 29 kts 272°
2026-04-30 08:09 44.82169 20.29819 329 ft 19 kts 270°
2026-04-30 08:09 44.82113 20.29663 330 ft 8 kts 207°
2026-04-30 08:09 44.82093 20.29644 328 ft 3 kts 226°
2026-04-30 08:09 44.82115 20.29575 330 ft 12 kts 280°
2026-04-30 08:10 44.82085 20.29510 330 ft 2 kts 242°
2026-04-30 08:10 44.82083 20.29507 330 ft 0 kts 239°
2026-04-30 08:10 44.82084 20.29477 330 ft 8 kts 285°
2026-04-30 08:10 44.82133 20.29360 330 ft 19 kts 303°
2026-04-30 08:11 44.82210 20.29192 328 ft 22 kts 303°
2026-04-30 08:11 44.82247 20.29067 329 ft 8 kts 228°
2026-04-30 08:11 44.82205 20.29028 328 ft 0 kts 212°